Oakland, CA

12:40 PM PST on December 06, 2019 (GMT -0800)
Metro Oakland International

Weather History for KOAK - October, 2019

Change the Weather History Date:

Thursday, October 24, 2019

  Actual Average Record
Temperature  
Mean Temperature 78 °F 59 °F  
Max Temperature 91 °F 68 °F 92 °F (2017)
Min Temperature 65 °F 50 °F 40 °F (1973)
Degree Days  
Heating Degree Days 0 6  
Month to date heating degree days 90 105  
Since 1 July heating degree days 120 305  
Cooling Degree Days 13 0  
Month to date cooling degree days 27 12  
Year to date cooling degree days 391 137  
Growing Degree Days 28 (Base 50)    
Moisture  
Dew Point 32 °F    
Average Humidity 31    
Maximum Humidity 52    
Minimum Humidity 10    
Precipitation  
Precipitation 0.00 in 0.05 in 0.39 in (1951)
Month to date precipitation T 0.74  
Year to date precipitation 15.94 14.24  
Sea Level Pressure  
Sea Level Pressure 30.02 in    
Wind  
Wind Speed 9 mph (ESE)    
Max Wind Speed 16 mph    
Max Gust Speed 20 mph    
Visibility 10 miles    
Events      
T = Trace of Precipitation, MM = Missing Value Source: NWS Daily Summary

Daily Weather History Graph

Daily Weather History Graph

Search for Another Location

Airport or City:

Astronomy

Oct. 24, 2019 Rise Set
Actual Time 7:25 AM PDT 6:19 PM PDT
Civil Twilight 6:59 AM PDT 6:46 PM PDT
Nautical Twilight 6:28 AM PDT 7:17 PM PDT
Astronomical Twilight 5:57 AM PDT 7:47 PM PDT
Moon 3:08 AM PDT (10/24) 4:44 PM PDT (10/24)
Length of Visible Light 11h 47m
Length of Day
10h 53m
Waning Crescent, 16% of the Moon is Illuminated
Oct 24
Waning Crescent
Oct 27
New
Nov 4
First Quarter
Nov 12
Full
Nov 19
Last Quarter

Hourly Weather History & Observations

Time (PDT) Temp. Dew Point Humidity Pressure Visibility Wind Dir Wind Speed Gust Speed Precip Events Conditions
12:53 AM 71.1 °F 41.0 °F 34% 29.95 in 10.0 mi SSW 4.6 mph - N/A   Clear
1:53 AM 73.0 °F 24.1 °F 16% 29.96 in 10.0 mi NE 4.6 mph - N/A   Clear
2:53 AM 72.0 °F 30.9 °F 22% 29.96 in 10.0 mi ENE 6.9 mph - N/A   Clear
3:53 AM 66.0 °F 48.0 °F 52% 29.97 in 10.0 mi South 5.8 mph - N/A   Clear
4:53 AM 68.0 °F 30.9 °F 25% 29.97 in 10.0 mi SE 8.1 mph - N/A   Clear
5:53 AM 68.0 °F 30.0 °F 24% 29.98 in 10.0 mi SE 10.4 mph - N/A   Clear
6:53 AM 66.9 °F 36.0 °F 32% 29.99 in 10.0 mi SSE 10.4 mph - N/A   Partly Cloudy
7:53 AM 66.9 °F 30.0 °F 25% 30.01 in 10.0 mi SE 9.2 mph - N/A   Partly Cloudy
8:53 AM 72.0 °F 30.0 °F 21% 30.04 in 10.0 mi SE 9.2 mph - N/A   Partly Cloudy
9:53 AM 73.0 °F 42.1 °F 33% 30.06 in 10.0 mi SSE 9.2 mph - N/A   Partly Cloudy
10:53 AM 81.0 °F 32.0 °F 17% 30.06 in 10.0 mi SE 8.1 mph - N/A   Scattered Clouds
11:53 AM 87.1 °F 25.0 °F 10% 30.06 in 10.0 mi NE 13.8 mph - N/A   Partly Cloudy
12:53 PM 89.1 °F 26.1 °F 10% 30.04 in 10.0 mi NE 12.7 mph - N/A   Partly Cloudy
1:53 PM 82.0 °F 36.0 °F 19% 30.03 in 10.0 mi SSW 8.1 mph - N/A   Partly Cloudy
2:53 PM 82.0 °F 36.0 °F 19% 30.02 in 10.0 mi WSW 5.8 mph - N/A   Scattered Clouds
3:53 PM 82.9 °F 30.0 °F 15% 30.02 in 10.0 mi West 6.9 mph - N/A   Scattered Clouds
4:53 PM 90.0 °F 28.0 °F 11% 30.01 in 10.0 mi NE 12.7 mph - N/A   Mostly Cloudy
5:53 PM 84.9 °F 27.0 °F 12% 30.01 in 10.0 mi ENE 8.1 mph - N/A   Mostly Cloudy
6:53 PM 78.1 °F 26.1 °F 15% 30.02 in 10.0 mi NE 9.2 mph - N/A   Mostly Cloudy
7:53 PM 77.0 °F 26.1 °F 15% 30.04 in 10.0 mi East 4.6 mph - N/A   Scattered Clouds
8:53 PM 75.9 °F 30.0 °F 19% 30.06 in 10.0 mi SE 8.1 mph - N/A   Clear
9:53 PM 73.0 °F 32.0 °F 22% 30.07 in 10.0 mi SE 9.2 mph - N/A   Clear
10:53 PM 73.0 °F 28.9 °F 20% 30.09 in 10.0 mi SE 9.2 mph - N/A   Clear
11:53 PM 71.1 °F 37.0 °F 29% 30.09 in 10.0 mi SE 9.2 mph - N/A   Clear